Location: Central Falls
(41.8900°N, 71.3929°W)
Time: 21:13:37
(UTC+00:00)

Vanguard 3 - Pass Details

Date: 04 December 2023
Orbit: 508 x 3239 km, 33.4° (Epoch: 28 February)

Event Time Altitude Azimuth Distance (km) Brightness Sun altitude
Rises 06:07:55 0° 264° (W) 4,424 - -62.4°
Reaches altitude 10° 06:11:50 10° 256° (WSW) 2,991 - -61.8°
Maximum altitude 06:17:41 31° 196° (SSW) 1,347 - -61.0°
Drops below altitude 10° 06:21:39 10° 133° (SE) 1,990 - -60.3°
Sets 06:23:46 0° 121° (ESE) 2,747 - -60.0°
